ミュラー第5彗星

173P/Mueller 5 (2021)

English version
Home page
Updated on August 1, 2021

---------------------------------------------------------------------

・ プロフィール

・ 写真集

・ 軌道要素

Epoch 2021 Dec. 12.0 TT = JDT 2459560.5
T 2021 Dec. 16.71395 TT                                 Rudenko
q   4.2170581            (2000.0)            P               Q
n   0.07230307     Peri.   29.18023     -0.61743263     -0.73539619
a   5.7064351      Node   100.40039     +0.65539405     -0.67723126
e   0.2609995      Incl.   16.49277     +0.43501216     -0.02345742
P  13.6
From 1140 observations 1992 Sept. 25-2021 Apr. 9, mean residual 0".8.

・ 光度変化

        m1 = -14 + 5 logΔ + 45 log r(t + 600)

---------------------------------------------------------------------

軌道要素はM.P.E.C. 2021-J28に掲載されたものです。
光度グラフはComet for Windowsで作成したものです。

---------------------------------------------------------------------

Copyright(C) Seiichi Yoshida (comet@aerith.net). All rights reserved.